Temp
7 7 7 7 7 7 6 6 6 6 6 6 6 6 6 6 6 6 6 6 6 6 5 5 5 5 5 5 5 5 5 4 4 4 4 4 4 4 4 4 4 4 4 4 4 4 4 4 4 4 4 4 4 4 4 4 4 4 4 4 4 4 4 4 4 4 4 4 4 4 4 5 5 5 5 5 4 4 4 4 4 4 4 4 4
7 7 7 6 6 6 6 6 6 5 6 6 6 6 6 6 6 6 6 6 6 6 6 5 5 5 5 5 5 5 5 5 5 5 4 4 4 4 4 4 4 4 4 4 4 4 4 4 4 4 4 4 4 4 4 4 4 4 4 4 4 4 4 4 4 4 4 4 4 4 4 4 5 5 5 4 4 4 4 4 4 4 4 4 4
7 7 6 6 6 6 6 6 6 5 6 6 6 6 6 6 6 6 6 6 6 6 6 6 6 6 6 6 5 5 5 5 5 5 4 4 4 4 4 4 4 4 4 4 4 4 4 4 4 4 4 4 4 4 4 4 4 4 4 4 4 4 4 4 4 4 4 4 4 4 4 4 4 4 4 4 4 4 4 4 4 4 4 4 4
7 6 6 6 6 6 6 6 6 5 5 5 6 6 6 6 6 6 6 6 6 6 6 6 6 6 6 6 6 6 5 5 5 5 5 5 4 4 4 4 4 4 4 4 4 4 4 4 4 4 4 4 4 4 4 4 4 4 4 4 4 4 4 4 4 4 4 4 4 4 4 4 4 4 4 4 4 4 4 4 4 4 4 4 4
6 6 6 6 6 6 6 6 5 5 5 5 5 6 6 6 6 6 6 6 6 6 6 6 6 6 6 6 6 6 5 5 5 5 5 5 5 5 5 4 4 5 5 5 4 4 4 4 4 4 4 4 5 5 4 4 4 4 4 4 4 4 4 4 4 4 4 4 4 4 4 4 4 4 4 4 4 4 4 4 4 4 4 4 4
6 6 6 6 6 6 6 6 5 5 5 5 5 5 5 6 6 6 6 6 6 6 6 6 6 6 6 6 6 6 6 6 5 5 5 5 5 5 5 5 5 5 5 5 5 5 5 5 4 4 4 4 5 5 5 5 4 4 4 4 4 4 4 4 4 4 4 4 3 4 4 4 4 4 4 4 4 4 4 4 4 4 4 4 4
6 6 6 6 5 5 5 5 5 5 5 5 5 5 5 6 6 6 6 6 6 6 6 6 6 6 6 6 6 6 6 6 5 5 5 5 5 5 5 5 5 5 5 5 5 5 5 5 5 5 4 4 4 5 5 5 5 5 5 4 4 4 4 4 4 4 4 4 4 4 4 4 4 4 4 4 4 4 4 4 4 4 4 4 4
6 6 6 6 5 5 5 5 5 5 5 5 5 5 5 6 6 6 6 6 6 6 6 6 6 6 5 5 5 5 5 5 5 5 5 5 5 5 5 5 5 5 5 5 5 5 5 5 5 5 4 4 5 5 5 5 5 5 5 5 4 4 4 4 4 3 3 3 4 4 3 3 3 3 3 3 4 4 4 4 4 4 4 4 4
6 6 6 5 5 5 5 5 5 5 5 5 5 5 5 5 5 5 6 6 6 6 5 5 6 6 5 5 5 5 5 5 5 5 5 5 5 5 5 5 5 5 5 5 5 5 5 5 5 5 4 4 4 5 5 5 5 5 4 5 5 4 4 4 4 4 4 4 4 3 3 3 3 3 3 3 3 3 3 4 4 4 4 4 4
6 6 5 5 5 5 5 5 5 5 5 6 6 6 6 5 5 5 5 5 5 5 5 5 5 5 5 5 5 5 5 5 5 5 5 5 5 5 5 5 5 5 5 5 5 5 5 5 5 4 4 4 4 4 4 4 4 4 4 4 4 4 4 4 4 4 4 4 4 4 3 3 3 3 3 3 3 3 3 3 4 4 4 4 4
6 5 5 5 5 5 5 5 5 5 5 6 6 6 6 5 5 5 5 5 5 5 5 5 5 5 6 5 5 5 5 5 5 5 5 5 5 5 5 5 5 5 5 5 5 5 5 5 5 4 4 4 4 4 4 4 4 4 4 4 4 4 4 4 4 4 4 4 4 4 4 3 3 3 3 3 3 3 4 3 3 3 3 3 4
5 5 5 5 5 5 5 5 5 5 5 5 6 6 5 5 5 5 5 5 5 5 5 5 5 5 5 5 5 5 5 5 5 5 5 5 5 5 5 5 5 5 5 5 5 5 5 5 5 5 4 4 4 4 4 4 4 4 4 4 4 4 4 4 4 4 4 4 4 4 4 3 3 3 3 3 3 3 3 3 3 3 3 3 3
5 5 5 5 5 5 5 5 5 6 5 5 5 5 5 5 5 5 5 5 5 5 5 5 5 5 5 5 5 5 5 5 5 5 5 5 5 5 5 5 5 5 5 5 5 5 5 5 5 5 5 5 5 5 4 4 4 4 4 4 4 4 4 4 4 4 4 4 4 4 4 4 3 3 3 3 3 3 3 3 3 3 3 3 3
5 5 5 5 5 5 5 5 5 5 5 5 5 5 5 5 5 5 5 5 5 5 5 6 5 5 5 5 5 6 6 6 6 5 5 5 5 5 5 5 5 5 5 5 5 5 5 5 5 5 5 5 5 5 5 5 4 4 4 4 4 4 4 4 4 4 4 4 4 4 4 4 4 4 4 3 3 3 3 3 3 3 3 3 3
5 5 5 5 5 5 5 5 5 5 5 5 5 5 5 5 5 5 5 5 5 6 6 6 6 6 6 6 6 6 6 6 6 6 5 5 5 5 5 5 5 5 5 5 5 5 5 5 5 5 5 5 5 5 5 5 5 5 4 4 4 4 4 4 4 4 4 4 4 4 4 4 4 4 3 3 3 3 3 3 3 3 3 3 3
5 5 5 5 5 5 5 5 5 5 5 5 5 5 5 5 5 5 5 6 6 6 6 6 6 6 6 6 6 6 6 6 6 5 5 5 5 5 5 5 5 5 5 5 5 5 5 5 5 5 5 5 5 5 5 5 5 5 5 5 5 4 4 4 4 4 4 4 4 4 4 4 4 4 4 3 3 3 3 3 3 3 3 3 3
5 5 5 5 5 5 5 5 5 5 5 5 5 5 5 5 5 5 6 6 6 6 6 6 6 6 6 6 6 6 6 6 5 5 5 5 5 5 5 5 5 5 5 5 5 5 5 5 5 5 5 5 5 5 5 5 5 5 5 5 5 5 4 4 4 4 4 4 4 4 4 4 4 4 4 4 3 3 3 3 3 3 3 3 3
5 5 5 5 5 5 5 5 5 5 5 5 5 5 5 5 5 5 6 6 6 6 6 6 6 6 6 6 6 6 6 6 6 5 5 5 5 5 5 5 5 5 5 5 5 5 5 5 5 5 4 5 5 5 5 5 5 5 5 5 5 5 5 4 4 4 4 4 4 4 4 4 4 4 4 4 4 3 3 3 3 3 3 3 3
5 5 5 5 5 5 5 5 5 5 5 5 5 5 5 5 5 5 6 5 5 6 6 6 6 6 6 6 6 6 6 6 6 6 5 5 5 5 5 4 4 4 4 4 4 4 4 4 4 4 4 4 4 4 5 4 5 5 5 5 5 5 5 4 4 4 4 4 4 4 4 4 4 4 4 4 4 3 3 3 3 3 3 3 3
5 5 5 5 5 5 5 5 5 5 5 5 5 5 5 5 5 5 5 5 5 5 6 6 6 6 6 6 6 6 6 6 6 6 5 5 4 4 4 4 4 4 4 4 4 4 4 4 4 4 4 4 4 4 4 4 4 4 4 4 4 4 4 4 4 4 4 4 4 4 4 4 4 4 4 4 4 3 3 3 3 3 3 3 3
5 5 5 5 5 5 5 5 5 5 5 5 5 5 5 5 5 5 5 5 5 5 5 5 5 6 6 6 6 6 6 5 5 5 5 4 4 4 4 4 4 4 4 4 4 3 3 3 3 3 3 3 3 3 3 3 3 3 3 4 4 4 4 4 4 4 4 4 4 4 4 4 4 4 4 5 4 4 3 3 3 3 3 3 3
5 5 5 5 5 5 5 5 5 5 5 5 5 5 5 5 5 5 5 5 5 5 5 5 5 5 5 6 5 5 5 5 5 5 5 4 4 4 4 4 4 4 4 4 4 3 3 3 3 3 3 3 3 3 3 3 3 3 3 3 3 3 3 3 4 4 4 4 4 4 4 4 4 4 4 5 5 4 3 3 3 3 3 3 3
5 5 5 5 5 5 5 5 5 5 5 5 5 5 5 5 5 5 5 5 5 5 5 5 5 5 5 5 5 5 5 5 5 5 4 4 4 4 3 3 3 3 4 3 3 3 3 3 3 3 3 3 3 3 3 3 3 3 3 3 3 3 3 3 3 3 3 4 4 4 4 4 4 4 4 4 4 4 4 3 3 3 3 3 3
5 5 5 5 5 5 5 5 5 5 5 5 5 5 5 5 5 5 5 5 5 5 5 5 5 5 5 5 5 5 5 5 4 4 4 3 3 3 3 3 3 3 3 3 3 3 3 3 3 3 2 2 2 2 2 2 2 2 2 3 3 3 3 3 3 3 3 3 3 3 4 3 3 4 4 4 4 4 4 4 3 3 3 3 3
5 5 5 5 5 5 5 5 5 5 5 5 5 5 5 5 5 5 5 5 5 5 5 5 5 5 5 5 5 5 4 4 4 4 3 3 3 3 3 3 3 3 3 3 3 2 2 2 2 2 2 2 2 2 2 2 2 2 2 2 2 2 3 3 3 3 3 3 3 3 3 3 3 3 3 4 4 4 4 4 4 3 3 3 3
5 5 5 5 5 5 5 5 5 5 5 5 5 5 5 5 5 5 5 5 5 5 5 5 5 5 5 4 4 4 4 4 4 3 3 3 3 3 3 3 2 2 2 2 2 2 2 2 2 2 1 1 2 2 2 2 2 2 2 2 2 2 2 2 3 3 3 3 3 3 3 3 3 3 3 3 3 4 4 4 4 3 3 3 3
5 5 5 5 5 5 5 5 5 5 5 5 5 5 5 5 5 5 5 5 5 5 5 5 5 4 4 4 4 4 4 3 3 3 3 3 3 3 3 2 2 2 2 2 2 2 2 1 1 2 1 1 1 1 1 1 1 1 1 2 2 2 2 2 2 3 3 3 3 3 3 3 3 3 3 3 3 3 3 3 4 4 3 3 3
5 5 5 5 5 5 5 5 5 5 5 5 5 5 5 5 5 5 4 4 4 4 4 4 4 4 4 4 4 3 3 3 3 3 3 3 3 2 2 2 2 2 2 1 1 1 2 1 1 1 1 1 1 1 1 1 1 1 1 1 1 2 2 2 2 3 3 3 3 3 3 3 3 3 3 3 3 3 3 3 3 4 4 3 3
5 5 5 5 5 5 5 5 5 5 5 5 5 5 5 4 4 4 4 4 4 4 4 4 4 4 4 4 3 3 3 3 3 3 3 2 2 2 2 2 1 1 1 1 1 1 1 1 1 0 0 0 0 0 0 0 0 0 1 1 1 1 1 2 2 2 2 3 3 3 3 3 3 3 3 3 3 3 3 3 3 3 3 3 3
5 5 5 5 5 5 5 5 5 5 5 5 4 4 4 4 4 4 4 4 4 4 4 4 4 4 3 3 3 3 3 3 2 2 2 2 2 1 1 1 1 1 0 0 0 0 -0 -0 -0 -0 -0 -0 -0 -0 -0 -0 -0 0 0 0 1 1 1 1 1 1 1 2 2 2 2 2 2 3 3 2 2 2 3 3 3 3 3 3 3
5 5 5 5 5 5 5 5 5 4 4 4 4 4 4 4 4 4 4 4 4 4 3 3 3 3 3 3 3 3 2 2 2 2 2 1 1 1 1 0 0 0 -0 -0 -0 -0 -0 -0 -1 -1 -1 -1 -0 -0 -0 -0 -0 -0 -0 -0 -0 0 0 0 -0 -0 -0 0 0 0 1 1 1 2 2 2 2 2 2 2 3 3 3 3 3
5 5 5 5 5 5 5 5 4 4 4 4 4 4 4 4 4 4 4 3 3 3 3 3 3 3 3 2 2 2 2 2 2 1 1 1 1 1 0 -0 -0 -0 -0 -0 -1 -1 -1 -1 -1 -1 -1 -1 -1 -0 -0 -0 -0 -0 -0 -0 -0 -0 -0 -0 -1 -1 -1 -1 -1 -0 -0 0 1 1 1 2 2 2 1 2 2 3 3 3 3
4 5 5 5 5 5 4 4 4 4 4 4 4 4 4 4 4 3 3 3 3 3 3 3 3 2 2 2 2 2 2 1 1 1 1 0 0 0 -0 -0 -0 -1 -1 -1 -1 -1 -1 -1 -1 -1 -1 -1 -1 -1 -0 -0 -1 -1 -1 -1 -1 -1 -1 -1 -1 -1 -1 -1 -1 -0 -0 -0 0 1 1 1 2 2 2 1 2 2 3 3 3
4 4 4 4 4 4 4 4 4 4 4 4 4 4 4 3 3 3 3 3 3 3 3 2 2 2 2 2 2 1 1 1 1 1 0 0 -0 -0 -1 -1 -1 -1 -1 -1 -1 -1 -1 -1 -1 -1 -1 -1 -1 -1 -1 -1 -1 -1 -1 -1 -1 -1 -1 -2 -2 -1 -1 -1 -1 -1 -0 0 0 1 1 1 2 2 2 2 1 1 2 2 3
4 4 4 4 4 4 4 4 4 3 3 3 3 3 3 3 3 3 3 3 3 2 2 2 2 2 2 1 1 1 1 1 0 0 -0 -0 -1 -1 -1 -1 -1 -1 -1 -1 -1 -1 -1 -1 -1 -1 -1 -1 -1 -1 -1 -1 -1 -1 -1 -1 -1 -2 -2 -2 -2 -2 -2 -2 -1 -1 -0 0 0 1 1 1 2 2 2 2 2 1 1 2 2
4 4 4 4 4 4 4 3 3 3 3 3 3 3 3 3 3 3 2 2 2 2 2 2 2 2 1 1 1 1 1 0 -0 -0 -0 -1 -1 -1 -1 -1 -1 -1 -1 -1 -2 -2 -2 -2 -2 -1 -1 -1 -1 -1 -1 -1 -1 -1 -2 -2 -2 -2 -2 -2 -2 -2 -2 -2 -2 -2 -1 -1 -0 -0 0 1 1 2 2 2 2 2 1 1 2
4 4 4 4 4 4 3 3 3 3 3 3 3 3 3 3 2 2 2 2 2 2 2 2 1 1 1 1 1 0 0 -0 -0 -0 -1 -1 -1 -1 -1 -1 -1 -1 -2 -2 -2 -2 -2 -2 -2 -2 -2 -2 -2 -1 -2 -2 -1 -1 -2 -2 -2 -3 -3 -3 -3 -3 -3 -3 -3 -2 -2 -2 -2 -1 -1 -0 0 1 1 2 2 2 1 1 1
4 4 4 4 4 3 3 3 3 3 3 3 3 3 2 2 2 2 2 2 2 2 1 1 1 1 1 0 0 0 -0 -0 -1 -1 -1 -1 -1 -1 -1 -1 -1 -2 -2 -2 -2 -2 -2 -2 -2 -2 -2 -2 -2 -2 -2 -2 -2 -2 -2 -2 -3 -3 -3 -3 -3 -3 -3 -3 -3 -2 -2 -2 -2 -2 -1 -1 -0 -0 0 1 1 2 1 1 1
4 4 4 4 3 3 3 3 3 3 3 3 3 2 2 2 2 2 2 2 2 1 1 1 1 0 0 0 0 -0 -0 -1 -1 -1 -1 -1 -1 -1 -1 -1 -2 -2 -2 -2 -2 -2 -2 -2 -2 -2 -2 -2 -2 -2 -2 -2 -3 -3 -3 -3 -3 -3 -3 -3 -3 -3 -3 -3 -3 -2 -2 -1 -1 -1 -1 -1 -1 -0 -0 0 0 1 1 1 1
4 4 4 3 3 3 3 3 3 3 2 2 2 2 2 2 2 2 2 1 1 1 1 1 0 0 0 0 -0 -0 -1 -1 -1 -1 -1 -1 -1 -1 -1 -1 -2 -2 -2 -2 -2 -2 -2 -2 -2 -2 -2 -2 -2 -3 -2 -2 -3 -3 -3 -3 -3 -3 -3 -3 -4 -3 -3 -3 -3 -2 -2 -1 -1 -1 -1 -1 -1 -1 -1 -1 -0 0 0 1 1
4 4 3 3 3 3 3 2 2 2 2 2 2 2 2 2 2 1 1 1 1 1 0 0 0 0 0 -0 -0 -1 -1 -1 -1 -1 -1 -1 -1 -1 -1 -2 -2 -2 -2 -2 -2 -2 -2 -2 -2 -2 -2 -2 -3 -3 -3 -3 -3 -4 -3 -4 -4 -4 -4 -4 -4 -4 -3 -3 -3 -3 -2 -1 -1 -1 -1 -1 -1 -1 -1 -1 -1 -1 -0 0 0
3 3 3 3 3 2 2 2 2 2 2 2 2 2 2 2 1 1 1 1 1 0 0 0 -0 -0 -0 -0 -1 -1 -1 -1 -1 -1 -1 -1 -1 -2 -2 -2 -2 -2 -2 -2 -2 -2 -2 -2 -2 -3 -3 -3 -3 -3 -3 -3 -4 -4 -4 -4 -4 -4 -4 -4 -4 -4 -4 -3 -3 -3 -3 -3 -2 -2 -2 -2 -2 -1 -1 -2 -2 -2 -1 -0 -0
3 3 3 3 2 2 2 2 2 2 2 2 2 2 1 1 1 1 1 1 0 0 -0 -0 -0 -0 -0 -1 -1 -1 -1 -1 -1 -1 -2 -2 -2 -2 -2 -2 -2 -2 -2 -3 -3 -3 -3 -3 -3 -3 -3 -3 -3 -4 -4 -4 -4 -4 -4 -4 -4 -4 -4 -4 -4 -4 -4 -4 -3 -3 -4 -4 -3 -3 -3 -3 -3 -3 -2 -2 -2 -2 -2 -1 -1
3 3 3 2 2 2 2 2 2 2 2 2 2 1 1 1 1 1 1 0 0 -0 -0 -0 -0 -1 -1 -1 -1 -1 -1 -1 -1 -2 -2 -2 -2 -2 -2 -2 -2 -2 -2 -3 -3 -3 -3 -3 -3 -3 -3 -4 -4 -4 -4 -4 -4 -4 -4 -4 -4 -4 -4 -4 -5 -5 -5 -4 -4 -4 -4 -4 -4 -3 -3 -3 -3 -4 -4 -4 -4 -3 -3 -2 -1
3 3 3 2 2 2 2 2 2 2 2 1 1 1 1 1 1 1 0 0 -0 -0 -0 -0 -1 -1 -1 -1 -1 -1 -1 -1 -2 -2 -2 -2 -2 -2 -3 -3 -3 -3 -3 -3 -3 -3 -3 -4 -4 -4 -4 -4 -4 -4 -4 -5 -4 -4 -4 -4 -4 -4 -4 -4 -5 -5 -5 -5 -4 -4 -4 -4 -4 -3 -3 -3 -3 -3 -4 -4 -4 -4 -4 -3 -2
3 3 2 2 2 2 2 2 2 2 1 1 1 1 1 1 0 0 0 -0 -0 -1 -1 -1 -1 -1 -1 -1 -1 -1 -2 -2 -2 -2 -2 -3 -3 -3 -3 -3 -3 -3 -3 -4 -4 -4 -4 -4 -4 -4 -4 -4 -4 -4 -5 -5 -5 -5 -5 -4 -4 -4 -4 -5 -5 -5 -5 -5 -5 -5 -4 -5 -4 -4 -3 -3 -3 -3 -3 -4 -4 -4 -5 -4 -3
3 2 2 2 1 1 1 2 1 1 1 1 1 1 1 1 0 0 -0 -0 -1 -1 -1 -1 -1 -2 -2 -1 -1 -2 -2 -2 -2 -2 -3 -3 -3 -3 -3 -3 -3 -3 -4 -4 -4 -4 -4 -4 -4 -4 -5 -5 -5 -5 -5 -5 -5 -5 -5 -5 -5 -4 -4 -5 -5 -5 -5 -5 -6 -5 -5 -5 -5 -4 -4 -4 -4 -4 -4 -4 -5 -5 -5 -5 -4
2 2 2 1 1 1 1 1 1 1 1 1 1 1 1 0 0 -0 -0 -1 -1 -1 -1 -1 -2 -2 -2 -2 -2 -2 -2 -2 -2 -2 -3 -3 -3 -3 -3 -4 -4 -4 -4 -4 -4 -4 -4 -4 -4 -5 -5 -5 -5 -5 -5 -5 -5 -5 -5 -5 -5 -5 -4 -4 -4 -5 -5 -5 -5 -6 -5 -5 -5 -6 -5 -5 -5 -5 -4 -4 -5 -5 -5 -5 -4
2 2 1 1 1 1 1 1 1 0 1 0 0 0 0 0 -0 -0 -1 -1 -1 -1 -1 -2 -2 -2 -2 -2 -2 -2 -2 -2 -2 -3 -3 -3 -3 -3 -3 -4 -4 -4 -4 -4 -4 -4 -4 -4 -5 -5 -5 -5 -5 -5 -5 -5 -5 -5 -5 -5 -5 -5 -5 -5 -4 -5 -5 -5 -5 -6 -6 -6 -6 -6 -6 -6 -6 -5 -5 -4 -4 -5 -5 -5 -4
2 2 1 1 1 1 1 1 0 0 0 0 0 0 -0 -0 -0 -1 -1 -1 -1 -1 -1 -2 -2 -2 -2 -2 -2 -2 -2 -2 -2 -3 -3 -3 -3 -3 -3 -4 -4 -4 -4 -4 -4 -4 -5 -5 -5 -5 -5 -5 -5 -5 -5 -5 -5 -5 -5 -5 -5 -5 -5 -5 -5 -5 -5 -5 -6 -6 -6 -6 -6 -6 -6 -6 -6 -6 -5 -5 -4 -4 -4 -4 -4
1 1 1 1 0 0 0 0 0 0 0 0 0 -0 -0 -1 -1 -1 -1 -1 -1 -2 -2 -2 -2 -2 -2 -2 -2 -2 -2 -2 -3 -3 -3 -3 -3 -3 -3 -3 -4 -4 -4 -4 -4 -4 -4 -5 -5 -5 -5 -5 -5 -5 -5 -5 -5 -5 -5 -5 -5 -5 -5 -6 -5 -5 -5 -5 -6 -6 -6 -6 -6 -6 -6 -6 -6 -6 -6 -5 -5 -4 -4 -4 -4
Height
3189 3189 3190 3190 3190 3190 3190 3190 3190 3190 3189 3189 3189 3188 3188 3187 3187 3186 3186 3185 3185 3184 3183 3183 3182 3181 3181 3180 3179 3179 3178 3177 3176 3175 3175 3174 3173 3173 3172 3172 3171 3170 3169 3168 3168 3167 3166 3165 3164 3163 3162 3161 3159 3158 3157 3155 3153 3152 3152 3151 3150 3149 3147 3147 3146 3146 3145 3145 3145 3145 3145 3145 3145 3145 3145 3145 3144 3144 3144 3144 3143 3143 3143 3143 3143
3188 3188 3189 3189 3190 3189 3189 3189 3189 3189 3189 3189 3188 3188 3187 3187 3186 3186 3185 3185 3184 3183 3182 3181 3181 3180 3180 3179 3179 3178 3177 3176 3175 3174 3173 3173 3172 3172 3171 3170 3170 3169 3168 3167 3167 3166 3165 3163 3162 3162 3161 3159 3158 3157 3156 3154 3152 3151 3151 3150 3148 3147 3146 3145 3145 3144 3144 3143 3143 3143 3143 3143 3143 3143 3143 3143 3143 3142 3142 3141 3141 3141 3141 3141 3141
3187 3187 3188 3188 3189 3189 3189 3189 3189 3189 3189 3188 3188 3187 3187 3186 3186 3185 3185 3184 3184 3183 3182 3181 3180 3180 3179 3179 3178 3177 3176 3175 3174 3173 3173 3172 3171 3171 3170 3169 3168 3167 3167 3166 3165 3164 3163 3162 3161 3160 3160 3158 3157 3156 3154 3153 3151 3150 3149 3148 3147 3146 3145 3144 3143 3143 3142 3142 3141 3141 3141 3141 3141 3141 3141 3141 3141 3141 3140 3140 3139 3139 3139 3139 3139
3186 3186 3187 3188 3188 3188 3189 3189 3188 3188 3188 3188 3187 3187 3186 3186 3185 3185 3185 3184 3183 3182 3181 3181 3180 3179 3179 3178 3177 3176 3175 3174 3173 3172 3172 3171 3170 3170 3169 3168 3167 3166 3165 3164 3164 3163 3162 3161 3160 3159 3158 3157 3156 3154 3152 3151 3150 3149 3148 3147 3146 3144 3144 3143 3142 3142 3141 3140 3139 3139 3138 3139 3138 3138 3138 3139 3139 3139 3138 3138 3137 3137 3137 3137 3137
3185 3186 3186 3187 3188 3188 3188 3188 3188 3188 3188 3187 3186 3186 3186 3185 3185 3185 3184 3183 3182 3181 3180 3180 3179 3178 3177 3177 3176 3175 3174 3173 3172 3171 3170 3170 3169 3168 3168 3167 3165 3164 3164 3163 3162 3162 3161 3160 3159 3158 3157 3156 3155 3153 3152 3150 3149 3148 3147 3146 3145 3144 3143 3142 3141 3140 3139 3138 3137 3136 3136 3136 3136 3136 3136 3136 3136 3137 3136 3136 3136 3135 3135 3135 3135
3184 3185 3186 3186 3187 3187 3187 3188 3187 3187 3187 3186 3186 3185 3185 3185 3184 3184 3183 3182 3181 3180 3179 3178 3178 3177 3176 3176 3175 3174 3173 3172 3171 3170 3169 3169 3168 3167 3166 3165 3164 3163 3162 3162 3161 3160 3159 3159 3157 3156 3155 3154 3153 3152 3151 3149 3148 3147 3146 3144 3143 3143 3142 3141 3139 3138 3137 3136 3135 3135 3135 3134 3134 3134 3134 3134 3134 3134 3134 3134 3134 3134 3133 3133 3133
3184 3184 3185 3185 3186 3186 3186 3187 3186 3186 3186 3186 3185 3184 3184 3184 3183 3183 3182 3182 3181 3180 3179 3178 3177 3176 3176 3175 3174 3174 3173 3172 3171 3170 3169 3168 3167 3166 3165 3164 3163 3162 3161 3160 3159 3159 3158 3157 3156 3155 3154 3153 3152 3151 3149 3148 3147 3145 3144 3143 3142 3141 3140 3139 3138 3136 3135 3135 3134 3133 3133 3132 3132 3132 3132 3132 3132 3131 3132 3132 3131 3131 3131 3131 3131
3183 3183 3184 3185 3185 3185 3185 3186 3186 3186 3185 3185 3185 3184 3183 3183 3182 3182 3181 3181 3180 3179 3179 3178 3177 3176 3175 3174 3174 3173 3172 3171 3170 3169 3168 3167 3166 3165 3164 3163 3162 3161 3160 3159 3158 3157 3156 3155 3154 3154 3153 3151 3150 3149 3148 3146 3145 3144 3142 3142 3141 3140 3139 3137 3136 3134 3133 3132 3132 3131 3130 3130 3130 3129 3129 3129 3129 3128 3128 3128 3128 3128 3129 3129 3129
3182 3183 3183 3184 3184 3184 3185 3185 3185 3185 3185 3185 3184 3184 3183 3182 3181 3181 3181 3180 3180 3179 3178 3177 3176 3175 3174 3174 3173 3172 3171 3170 3169 3168 3167 3166 3165 3164 3163 3161 3160 3159 3158 3157 3156 3155 3154 3153 3152 3151 3150 3149 3148 3147 3146 3145 3144 3142 3141 3140 3139 3138 3137 3135 3134 3132 3131 3130 3129 3129 3128 3127 3127 3126 3126 3125 3126 3126 3126 3125 3125 3125 3125 3126 3126
3182 3182 3182 3183 3183 3183 3184 3184 3184 3184 3184 3184 3184 3183 3182 3181 3181 3180 3180 3180 3180 3179 3178 3177 3175 3174 3174 3173 3172 3171 3170 3169 3168 3167 3166 3165 3163 3162 3161 3160 3159 3157 3156 3155 3154 3153 3152 3151 3149 3148 3148 3147 3146 3145 3143 3142 3141 3140 3139 3138 3137 3136 3135 3133 3131 3130 3129 3128 3127 3126 3126 3125 3124 3124 3123 3122 3123 3123 3123 3123 3123 3123 3123 3123 3123
3181 3181 3182 3182 3182 3182 3183 3183 3183 3183 3183 3183 3183 3183 3182 3181 3180 3180 3180 3180 3180 3179 3178 3177 3175 3174 3174 3173 3172 3171 3169 3168 3166 3165 3165 3163 3162 3160 3159 3158 3157 3156 3155 3153 3152 3151 3150 3149 3147 3146 3145 3144 3143 3142 3141 3140 3138 3137 3136 3135 3134 3134 3133 3131 3129 3128 3127 3126 3125 3124 3123 3123 3122 3122 3121 3120 3120 3120 3120 3121 3120 3120 3120 3120 3120
3180 3180 3181 3181 3181 3181 3182 3182 3182 3182 3182 3182 3183 3183 3182 3181 3180 3180 3180 3180 3179 3179 3178 3177 3175 3174 3173 3172 3171 3169 3168 3166 3165 3164 3163 3162 3160 3159 3157 3156 3155 3154 3153 3152 3150 3149 3148 3146 3145 3143 3143 3142 3140 3139 3138 3137 3136 3134 3133 3132 3131 3131 3130 3129 3127 3125 3124 3123 3122 3121 3121 3120 3120 3119 3118 3118 3117 3117 3117 3117 3117 3116 3117 3117 3117
3179 3179 3180 3180 3180 3180 3181 3181 3181 3181 3181 3182 3182 3182 3182 3181 3180 3180 3179 3179 3179 3178 3177 3177 3176 3175 3173 3172 3170 3168 3167 3165 3164 3163 3162 3161 3159 3157 3156 3155 3154 3153 3152 3150 3148 3147 3146 3144 3142 3141 3140 3139 3138 3137 3135 3134 3133 3132 3130 3129 3128 3127 3127 3126 3125 3123 3121 3120 3119 3118 3117 3117 3117 3116 3116 3115 3114 3114 3114 3114 3114 3114 3114 3115 3115
3178 3178 3179 3179 3179 3180 3180 3180 3180 3180 3180 3180 3181 3181 3181 3181 3180 3179 3179 3178 3178 3177 3177 3176 3176 3175 3173 3171 3169 3167 3166 3165 3163 3162 3161 3159 3157 3156 3155 3154 3153 3152 3150 3148 3146 3145 3144 3142 3140 3139 3137 3136 3135 3133 3132 3131 3130 3129 3127 3126 3125 3124 3123 3122 3122 3120 3119 3117 3116 3115 3114 3113 3113 3113 3113 3112 3112 3111 3111 3111 3111 3111 3111 3112 3112
3177 3177 3178 3178 3179 3179 3180 3180 3179 3180 3180 3180 3180 3180 3180 3180 3179 3179 3178 3178 3178 3177 3177 3176 3175 3174 3173 3171 3169 3167 3166 3164 3163 3161 3159 3157 3156 3155 3154 3153 3151 3150 3148 3146 3144 3143 3142 3140 3138 3137 3135 3133 3132 3130 3129 3128 3126 3125 3124 3123 3121 3120 3119 3118 3118 3117 3115 3114 3113 3112 3111 3110 3110 3109 3109 3109 3109 3108 3108 3107 3107 3107 3107 3108 3109
3176 3176 3177 3178 3178 3178 3179 3179 3179 3179 3179 3179 3179 3179 3179 3179 3179 3178 3178 3177 3177 3177 3177 3176 3175 3173 3172 3171 3170 3168 3166 3164 3162 3161 3159 3157 3155 3154 3153 3151 3150 3148 3146 3144 3143 3141 3140 3138 3137 3135 3133 3131 3129 3128 3126 3124 3123 3122 3120 3119 3118 3117 3116 3114 3113 3113 3112 3111 3110 3108 3107 3107 3106 3106 3106 3105 3105 3105 3105 3104 3104 3104 3104 3104 3105
3175 3175 3176 3177 3177 3178 3178 3178 3178 3178 3178 3178 3178 3178 3178 3178 3178 3177 3177 3177 3177 3177 3176 3175 3174 3173 3172 3171 3170 3168 3167 3165 3163 3161 3159 3157 3155 3154 3152 3151 3149 3147 3144 3143 3141 3139 3137 3136 3134 3133 3131 3129 3127 3125 3123 3122 3120 3118 3117 3116 3115 3113 3112 3111 3109 3108 3107 3106 3105 3105 3104 3103 3102 3102 3101 3102 3102 3101 3101 3101 3101 3100 3100 3101 3102
3174 3174 3175 3176 3176 3177 3177 3177 3177 3177 3177 3177 3177 3177 3177 3177 3177 3177 3177 3177 3176 3176 3175 3174 3173 3172 3171 3170 3169 3168 3167 3165 3163 3160 3158 3156 3153 3152 3151 3149 3148 3145 3143 3141 3139 3137 3135 3134 3132 3130 3128 3127 3125 3123 3120 3119 3117 3115 3113 3112 3111 3110 3108 3107 3106 3104 3103 3102 3101 3100 3099 3099 3098 3098 3097 3097 3097 3098 3097 3098 3098 3097 3097 3098 3098
3173 3173 3174 3175 3175 3176 3176 3176 3176 3176 3176 3176 3176 3176 3176 3176 3176 3176 3176 3176 3175 3175 3174 3173 3172 3171 3171 3170 3169 3167 3166 3164 3163 3160 3157 3154 3152 3149 3148 3147 3146 3144 3141 3139 3137 3135 3134 3132 3130 3128 3126 3124 3121 3119 3117 3115 3113 3111 3109 3108 3107 3106 3105 3104 3102 3100 3099 3098 3097 3096 3095 3094 3094 3093 3093 3092 3092 3093 3094 3094 3094 3094 3094 3094 3095
3172 3172 3173 3174 3174 3175 3175 3175 3175 3175 3175 3175 3175 3175 3175 3175 3175 3175 3175 3175 3174 3173 3172 3172 3171 3170 3170 3169 3168 3166 3165 3163 3161 3159 3157 3155 3152 3149 3146 3145 3143 3142 3139 3137 3135 3133 3131 3129 3127 3125 3122 3120 3118 3116 3113 3111 3109 3107 3105 3104 3103 3101 3100 3099 3098 3096 3095 3094 3093 3092 3091 3090 3089 3088 3088 3087 3087 3088 3089 3090 3090 3090 3091 3091 3091
3170 3171 3172 3173 3173 3173 3174 3174 3174 3174 3174 3174 3174 3174 3174 3174 3174 3174 3174 3173 3173 3172 3171 3170 3170 3169 3168 3167 3166 3164 3163 3161 3159 3157 3156 3154 3152 3149 3147 3144 3142 3139 3137 3135 3133 3131 3128 3126 3123 3121 3119 3117 3115 3112 3110 3108 3106 3103 3101 3099 3098 3097 3096 3095 3093 3092 3091 3089 3088 3087 3086 3085 3084 3084 3083 3082 3082 3083 3084 3084 3086 3086 3086 3087 3087
3169 3171 3171 3172 3172 3172 3172 3173 3173 3173 3173 3173 3173 3173 3173 3173 3173 3173 3173 3172 3171 3171 3170 3169 3168 3167 3167 3165 3164 3163 3161 3159 3158 3156 3154 3153 3151 3148 3146 3144 3141 3138 3135 3132 3130 3128 3126 3123 3121 3118 3116 3114 3111 3109 3107 3104 3102 3100 3097 3095 3093 3092 3091 3090 3089 3087 3086 3084 3083 3082 3081 3080 3080 3079 3078 3077 3077 3078 3078 3079 3080 3081 3082 3082 3083
3169 3170 3171 3171 3171 3171 3172 3172 3172 3172 3172 3172 3172 3172 3172 3172 3172 3172 3172 3171 3170 3169 3168 3167 3167 3166 3165 3164 3163 3162 3160 3159 3157 3155 3153 3151 3149 3147 3145 3143 3141 3138 3135 3132 3129 3126 3123 3121 3118 3116 3113 3111 3108 3106 3103 3101 3098 3096 3094 3091 3089 3087 3086 3085 3084 3082 3081 3079 3078 3077 3076 3075 3074 3074 3073 3073 3072 3072 3073 3073 3074 3076 3077 3077 3078
3168 3169 3169 3170 3170 3170 3170 3170 3171 3171 3171 3171 3171 3171 3171 3171 3171 3171 3170 3170 3169 3168 3167 3166 3165 3165 3164 3163 3162 3161 3159 3157 3155 3153 3151 3150 3148 3146 3143 3141 3139 3137 3134 3131 3128 3125 3122 3120 3117 3114 3111 3109 3106 3103 3100 3098 3095 3092 3090 3087 3085 3082 3081 3079 3078 3077 3076 3074 3073 3072 3071 3070 3069 3068 3068 3068 3067 3067 3067 3067 3068 3069 3071 3072 3073
3167 3168 3168 3169 3169 3169 3169 3169 3170 3170 3170 3170 3170 3170 3170 3170 3170 3169 3169 3168 3167 3166 3165 3165 3164 3163 3163 3162 3161 3159 3157 3155 3153 3152 3150 3148 3147 3144 3142 3139 3137 3135 3133 3130 3128 3125 3122 3119 3117 3114 3111 3107 3104 3101 3098 3095 3092 3089 3086 3084 3081 3078 3075 3074 3072 3071 3070 3069 3068 3066 3065 3064 3063 3062 3062 3062 3062 3062 3061 3062 3062 3063 3064 3066 3068
3166 3167 3167 3167 3168 3168 3168 3169 3169 3169 3169 3169 3169 3169 3169 3169 3168 3168 3167 3166 3165 3165 3164 3163 3163 3162 3161 3160 3159 3157 3155 3153 3152 3150 3149 3147 3145 3144 3142 3139 3137 3135 3132 3130 3127 3126 3123 3118 3115 3113 3110 3107 3103 3099 3096 3093 3090 3087 3083 3080 3077 3074 3071 3068 3066 3065 3064 3063 3062 3060 3059 3058 3057 3056 3056 3056 3056 3056 3056 3056 3056 3057 3058 3060 3062
3165 3165 3166 3167 3167 3167 3168 3168 3168 3168 3168 3168 3168 3168 3167 3167 3167 3166 3166 3165 3164 3163 3163 3162 3162 3161 3160 3159 3157 3155 3154 3152 3150 3149 3147 3145 3144 3142 3141 3140 3137 3135 3132 3129 3126 3123 3121 3118 3114 3110 3108 3105 3101 3098 3094 3091 3087 3084 3081 3078 3075 3071 3068 3064 3061 3059 3057 3056 3055 3054 3053 3052 3051 3050 3050 3049 3049 3050 3050 3050 3050 3051 3052 3053 3055
3164 3164 3165 3166 3166 3166 3167 3167 3167 3167 3167 3167 3166 3166 3166 3166 3165 3165 3164 3163 3163 3162 3161 3161 3160 3159 3158 3157 3155 3154 3152 3150 3149 3147 3146 3144 3143 3141 3140 3138 3136 3133 3131 3129 3126 3122 3119 3117 3114 3110 3106 3103 3100 3096 3092 3088 3085 3081 3078 3074 3071 3068 3064 3060 3057 3053 3051 3049 3047 3047 3046 3045 3044 3043 3043 3043 3043 3043 3043 3044 3044 3045 3045 3046 3048
3162 3163 3164 3165 3165 3165 3166 3166 3166 3166 3165 3165 3165 3165 3165 3164 3164 3163 3163 3162 3161 3160 3160 3159 3158 3157 3156 3155 3154 3152 3151 3149 3148 3146 3145 3143 3142 3140 3138 3135 3133 3131 3128 3126 3124 3122 3119 3115 3113 3110 3107 3103 3099 3096 3091 3087 3083 3079 3075 3071 3068 3064 3061 3057 3053 3049 3046 3043 3041 3039 3038 3038 3037 3037 3036 3035 3035 3036 3036 3037 3038 3038 3039 3039 3041
3161 3162 3163 3164 3164 3164 3164 3165 3165 3164 3164 3164 3164 3164 3163 3163 3162 3162 3161 3160 3159 3159 3158 3158 3157 3156 3155 3154 3152 3151 3149 3148 3146 3145 3144 3142 3140 3138 3136 3133 3131 3129 3126 3123 3120 3119 3117 3114 3110 3107 3105 3101 3098 3094 3090 3086 3081 3077 3073 3069 3064 3060 3057 3053 3048 3044 3041 3037 3035 3032 3031 3030 3030 3029 3029 3028 3028 3028 3029 3029 3031 3032 3033 3033 3034
3161 3161 3162 3163 3163 3163 3163 3163 3163 3163 3163 3163 3163 3162 3162 3161 3161 3160 3159 3158 3158 3157 3157 3156 3155 3155 3153 3152 3151 3149 3148 3146 3145 3144 3142 3140 3138 3136 3134 3132 3130 3127 3125 3122 3118 3115 3113 3111 3108 3104 3101 3099 3095 3092 3088 3084 3079 3075 3070 3065 3061 3057 3052 3048 3044 3040 3036 3032 3029 3027 3025 3023 3022 3022 3022 3021 3021 3021 3022 3022 3023 3025 3026 3027 3028
3160 3160 3161 3161 3162 3162 3162 3162 3162 3162 3162 3161 3161 3161 3160 3160 3159 3158 3157 3157 3157 3156 3156 3155 3154 3153 3152 3151 3149 3148 3147 3145 3144 3142 3140 3138 3136 3134 3132 3130 3128 3126 3123 3121 3118 3114 3111 3108 3105 3101 3098 3095 3092 3089 3085 3081 3076 3072 3067 3062 3057 3053 3048 3044 3040 3036 3032 3028 3025 3022 3020 3017 3016 3015 3015 3015 3014 3014 3015 3016 3016 3017 3019 3021 3022
3159 3159 3160 3160 3160 3160 3160 3160 3160 3160 3160 3160 3159 3159 3159 3158 3157 3157 3156 3156 3155 3155 3155 3154 3153 3152 3151 3150 3148 3147 3146 3144 3143 3141 3139 3137 3135 3133 3130 3128 3126 3123 3121 3119 3116 3114 3111 3108 3104 3100 3096 3093 3089 3085 3082 3078 3073 3069 3064 3060 3054 3049 3044 3039 3036 3032 3028 3024 3020 3017 3014 3012 3010 3009 3008 3008 3008 3008 3008 3009 3009 3010 3011 3013 3015
3157 3158 3158 3159 3159 3159 3159 3159 3159 3159 3159 3158 3158 3157 3157 3156 3156 3155 3155 3155 3155 3154 3154 3153 3152 3151 3150 3149 3147 3146 3145 3143 3142 3140 3138 3136 3134 3131 3129 3126 3123 3121 3119 3117 3114 3112 3109 3106 3103 3100 3096 3092 3087 3083 3078 3074 3070 3066 3061 3056 3051 3046 3041 3036 3032 3028 3024 3020 3015 3012 3009 3007 3005 3004 3003 3002 3001 3001 3002 3002 3002 3003 3004 3005 3007
3156 3157 3157 3158 3158 3158 3158 3157 3157 3157 3157 3157 3156 3156 3155 3155 3155 3154 3154 3154 3154 3153 3153 3152 3151 3150 3149 3148 3147 3145 3144 3143 3141 3139 3138 3135 3133 3130 3128 3125 3122 3120 3117 3115 3112 3110 3107 3104 3101 3097 3094 3089 3085 3081 3077 3072 3068 3063 3058 3053 3048 3043 3038 3033 3028 3024 3019 3015 3011 3007 3004 3001 3000 2998 2997 2996 2995 2994 2994 2995 2995 2996 2997 2998 2999
3155 3155 3156 3156 3156 3156 3156 3155 3156 3155 3155 3155 3155 3154 3154 3154 3154 3154 3153 3153 3153 3153 3152 3151 3150 3149 3148 3147 3146 3145 3144 3142 3141 3139 3137 3134 3132 3129 3127 3125 3122 3120 3117 3114 3111 3108 3106 3102 3099 3095 3092 3087 3083 3079 3075 3071 3066 3062 3057 3052 3047 3041 3036 3030 3025 3021 3016 3011 3007 3003 3000 2997 2994 2992 2990 2989 2988 2987 2987 2987 2988 2989 2990 2991 2992
3153 3153 3154 3154 3154 3154 3154 3154 3154 3154 3154 3154 3153 3153 3153 3153 3153 3153 3153 3153 3152 3152 3151 3150 3149 3148 3147 3146 3145 3144 3143 3141 3140 3138 3136 3133 3131 3129 3127 3125 3122 3119 3117 3114 3111 3108 3105 3101 3098 3094 3091 3087 3083 3078 3074 3069 3064 3060 3056 3052 3046 3040 3033 3028 3023 3018 3014 3009 3004 2999 2996 2993 2990 2987 2985 2983 2982 2980 2980 2980 2981 2982 2984 2985 2986
3151 3151 3151 3151 3151 3152 3152 3152 3152 3152 3152 3152 3152 3152 3152 3152 3152 3152 3152 3152 3151 3151 3150 3149 3148 3147 3147 3146 3145 3143 3142 3141 3139 3137 3135 3133 3131 3129 3127 3125 3122 3119 3117 3114 3111 3108 3104 3101 3097 3093 3090 3086 3081 3077 3072 3068 3062 3057 3052 3048 3044 3038 3031 3024 3020 3016 3011 3007 3001 2995 2991 2989 2986 2982 2979 2977 2976 2975 2974 2973 2973 2974 2976 2978 2980
3148 3149 3149 3149 3149 3150 3150 3151 3151 3151 3151 3151 3151 3151 3151 3151 3151 3151 3151 3151 3150 3150 3149 3148 3148 3147 3146 3145 3144 3143 3142 3140 3138 3136 3134 3132 3131 3129 3127 3124 3122 3119 3116 3113 3109 3106 3103 3100 3096 3092 3088 3084 3080 3076 3071 3067 3062 3056 3050 3043 3039 3035 3030 3022 3015 3011 3008 3004 2999 2993 2987 2984 2981 2978 2975 2972 2970 2969 2968 2967 2967 2967 2969 2971 2973
3146 3146 3147 3147 3147 3148 3148 3149 3149 3149 3149 3149 3149 3150 3150 3150 3150 3150 3150 3150 3149 3149 3148 3148 3147 3146 3146 3145 3144 3142 3141 3139 3137 3135 3134 3132 3130 3128 3126 3123 3121 3118 3115 3111 3108 3105 3102 3099 3095 3091 3087 3083 3079 3075 3070 3065 3060 3054 3048 3042 3035 3031 3027 3021 3013 3008 3005 3001 2997 2991 2984 2980 2976 2973 2971 2968 2966 2964 2962 2962 2962 2962 2962 2964 2966
3144 3144 3145 3145 3146 3146 3147 3147 3147 3147 3148 3148 3148 3149 3149 3149 3149 3149 3149 3148 3148 3148 3147 3147 3146 3146 3145 3144 3143 3141 3140 3138 3136 3135 3134 3132 3130 3128 3126 3123 3120 3116 3113 3109 3106 3103 3100 3097 3094 3090 3086 3081 3077 3073 3068 3063 3057 3052 3047 3042 3035 3029 3024 3020 3014 3008 3003 2998 2994 2988 2981 2975 2971 2969 2966 2964 2962 2960 2958 2957 2957 2956 2956 2957 2959
3142 3142 3143 3143 3144 3144 3145 3145 3145 3146 3146 3147 3147 3148 3148 3148 3148 3148 3148 3147 3147 3147 3146 3146 3145 3144 3144 3143 3141 3140 3138 3137 3135 3134 3133 3131 3129 3127 3124 3121 3118 3115 3111 3108 3105 3102 3099 3096 3092 3088 3084 3080 3076 3072 3067 3063 3059 3054 3048 3041 3035 3028 3022 3017 3013 3006 3000 2995 2990 2985 2979 2973 2968 2965 2963 2961 2959 2957 2955 2953 2952 2952 2951 2952 2953
3139 3140 3141 3141 3142 3142 3143 3143 3144 3144 3145 3145 3146 3147 3147 3147 3147 3147 3146 3146 3146 3146 3145 3145 3144 3143 3142 3141 3140 3139 3137 3136 3135 3133 3132 3130 3127 3125 3122 3119 3116 3113 3110 3107 3105 3102 3098 3095 3091 3087 3083 3080 3076 3072 3068 3064 3060 3054 3048 3042 3035 3029 3021 3014 3008 3002 2997 2993 2988 2983 2977 2972 2967 2964 2961 2959 2957 2955 2952 2950 2949 2947 2946 2946 2947
3137 3138 3139 3139 3140 3140 3141 3141 3142 3142 3143 3144 3145 3145 3145 3146 3146 3145 3145 3145 3145 3144 3144 3143 3143 3142 3141 3140 3139 3138 3137 3136 3135 3133 3131 3129 3126 3123 3120 3117 3114 3111 3109 3106 3104 3101 3098 3094 3090 3086 3083 3079 3075 3072 3067 3063 3059 3054 3050 3044 3037 3030 3023 3016 3009 3003 2999 2994 2988 2982 2976 2970 2966 2963 2960 2958 2955 2952 2950 2948 2945 2943 2941 2940 2940
3134 3135 3136 3137 3138 3138 3139 3139 3140 3141 3142 3143 3143 3144 3144 3144 3144 3144 3144 3143 3143 3143 3143 3143 3142 3141 3141 3139 3138 3137 3137 3136 3134 3133 3131 3128 3126 3123 3120 3117 3115 3112 3109 3107 3104 3101 3098 3094 3090 3086 3082 3078 3075 3072 3068 3063 3059 3055 3050 3045 3039 3033 3027 3021 3014 3008 3002 2995 2988 2982 2976 2970 2965 2962 2959 2956 2953 2950 2948 2945 2942 2939 2936 2934 2934
3132 3133 3134 3135 3136 3136 3137 3138 3138 3139 3140 3141 3142 3142 3143 3143 3143 3143 3142 3142 3142 3142 3142 3142 3141 3141 3140 3139 3138 3137 3136 3135 3134 3132 3130 3128 3125 3123 3120 3118 3115 3113 3110 3108 3105 3102 3098 3095 3091 3086 3083 3079 3075 3072 3069 3065 3060 3055 3051 3046 3041 3036 3031 3026 3020 3014 3006 2998 2990 2984 2979 2972 2966 2962 2959 2955 2952 2948 2945 2942 2939 2935 2932 2930 2929
3129 3130 3131 3133 3134 3134 3135 3136 3137 3138 3139 3140 3140 3141 3141 3141 3141 3141 3141 3141 3141 3141 3141 3141 3141 3140 3139 3138 3137 3137 3136 3135 3134 3132 3130 3128 3125 3123 3120 3118 3115 3113 3110 3108 3105 3101 3098 3095 3091 3087 3083 3079 3075 3072 3069 3066 3062 3057 3053 3048 3044 3040 3035 3029 3023 3017 3009 3001 2993 2986 2981 2975 2969 2964 2959 2955 2951 2947 2943 2940 2936 2933 2930 2927 2927
3126 3127 3129 3130 3132 3132 3133 3134 3135 3136 3138 3138 3139 3139 3140 3140 3140 3140 3140 3140 3140 3140 3140 3140 3140 3139 3139 3138 3137 3137 3136 3135 3133 3131 3129 3128 3126 3123 3121 3119 3116 3113 3110 3108 3105 3101 3098 3095 3092 3089 3085 3081 3077 3073 3069 3066 3062 3059 3054 3050 3045 3040 3035 3029 3023 3016 3009 3002 2996 2989 2984 2979 2974 2967 2961 2956 2951 2947 2942 2939 2935 2932 2929 2927 2926
3124 3125 3126 3128 3129 3130 3131 3133 3134 3135 3136 3137 3137 3138 3138 3138 3138 3139 3139 3139 3139 3140 3140 3139 3139 3139 3138 3137 3137 3137 3136 3134 3133 3131 3129 3127 3125 3124 3122 3120 3117 3115 3112 3110 3107 3103 3100 3096 3093 3090 3087 3084 3080 3076 3071 3066 3062 3058 3054 3049 3043 3037 3033 3028 3022 3016 3010 3004 2999 2993 2987 2982 2978 2972 2966 2959 2953 2948 2943 2938 2935 2932 2929 2928 2927
3121 3122 3123 3125 3127 3128 3130 3131 3132 3133 3134 3135 3136 3136 3137 3137 3137 3137 3138 3138 3138 3139 3139 3138 3138 3138 3137 3137 3136 3136 3135 3134 3132 3130 3129 3127 3125 3123 3121 3119 3117 3115 3113 3110 3107 3104 3101 3098 3095 3091 3088 3085 3081 3077 3072 3067 3062 3057 3053 3048 3043 3038 3032 3027 3022 3017 3012 3006 3000 2996 2992 2987 2982 2976 2970 2964 2958 2952 2945 2939 2935 2933 2931 2929 2928
3118 3119 3121 3123 3124 3126 3128 3129 3131 3132 3132 3133 3134 3135 3135 3135 3135 3136 3137 3137 3137 3138 3138 3137 3137 3137 3136 3136 3136 3135 3134 3133 3131 3130 3128 3127 3125 3123 3121 3118 3116 3114 3111 3108 3106 3103 3100 3097 3094 3091 3087 3084 3081 3077 3073 3068 3063 3057 3052 3048 3044 3040 3034 3028 3023 3018 3012 3007 3002 2999 2995 2990 2984 2978 2971 2965 2960 2955 2948 2942 2938 2936 2934 2932 2931
Wind_Speed
12 13 13 12 11 11 11 11 10 9 8 8 8 8 7 8 9 9 10 10 10 11 12 12 13 13 14 15 15 16 17 17 18 17 17 16 16 16 15 15 15 15 15 16 15 15 15 16 18 18 19 19 20 20 21 21 20 18 17 17 17 17 17 16 16 16 15 15 15 15 15 16 16 15 15 14 13 13 13 13 14 14 14 13 13
13 13 13 12 11 12 12 11 11 9 8 7 6 6 7 8 9 9 10 10 10 11 12 13 13 14 15 15 16 16 16 15 14 13 13 13 12 12 12 12 13 13 13 13 13 13 14 15 17 17 18 19 20 20 21 21 20 19 19 18 17 16 17 17 16 15 15 14 15 16 16 16 16 16 16 15 14 13 13 13 13 14 14 14 14
13 13 13 12 12 12 12 12 11 8 6 5 5 7 7 8 9 10 10 11 11 12 13 14 14 14 14 14 14 13 12 11 10 10 10 10 10 10 11 11 12 12 12 13 13 12 13 15 16 16 16 17 18 20 20 20 20 20 20 19 18 16 16 17 17 16 15 15 15 16 17 17 17 17 16 16 15 14 14 14 13 13 14 14 14
13 13 12 12 12 12 12 11 8 5 4 5 6 7 8 9 10 10 11 11 11 12 12 13 12 12 12 12 12 12 11 11 11 11 11 10 10 10 10 11 12 12 13 13 13 13 13 14 15 15 15 15 17 18 19 19 19 19 19 18 17 16 16 16 16 16 16 16 16 16 17 17 17 17 17 17 16 16 15 14 14 14 14 14 15
13 13 12 11 11 12 11 8 5 4 4 5 6 7 8 8 9 9 9 10 10 11 11 11 11 11 11 11 12 12 13 13 13 13 13 13 12 12 12 12 13 14 14 14 14 14 13 13 14 15 15 16 17 18 18 19 19 19 19 18 18 17 16 17 17 17 17 18 18 17 17 17 18 18 18 18 17 17 17 16 15 14 14 15 15
13 12 11 11 11 11 10 6 4 4 4 5 6 7 7 7 8 8 8 9 10 10 10 10 10 10 11 12 12 13 13 13 14 14 14 14 14 14 14 14 14 15 15 15 15 15 15 15 15 15 16 16 17 18 18 19 20 19 18 18 19 18 17 18 18 18 18 18 19 19 19 19 19 19 19 19 18 18 18 17 16 15 15 15 16
13 12 11 10 10 10 7 5 5 5 6 6 7 7 7 6 7 7 8 9 9 10 9 10 10 11 11 12 12 12 12 13 13 14 14 15 15 15 15 15 15 16 17 17 17 17 16 16 17 17 17 18 18 18 19 19 19 19 19 19 19 19 18 18 18 19 19 19 19 20 21 21 21 20 19 19 19 19 19 19 17 16 16 16 17
13 12 10 10 10 8 6 6 6 7 8 7 7 7 5 5 6 7 8 9 10 10 10 10 10 11 11 12 12 12 12 12 13 14 14 15 15 15 15 16 16 17 18 19 19 18 18 18 19 18 18 19 19 19 20 20 20 20 20 20 20 19 19 18 18 19 19 19 20 20 21 21 22 22 21 20 20 20 20 20 18 17 17 17 18
12 11 10 10 9 7 6 7 8 8 8 8 7 6 4 4 5 6 7 8 9 9 10 11 12 12 12 12 12 13 12 12 13 14 15 15 16 16 16 17 18 19 20 20 20 20 20 21 21 21 21 20 20 21 21 21 21 21 21 21 20 20 19 19 20 19 19 19 19 19 20 21 22 23 23 23 22 21 21 21 20 19 18 18 19
12 11 10 9 8 7 7 8 8 8 7 7 7 6 4 4 4 5 6 7 8 9 10 11 13 13 13 13 13 13 14 14 14 15 16 17 17 18 18 19 20 21 21 22 21 22 22 23 24 24 24 23 23 23 23 23 22 22 22 22 22 21 20 20 21 21 21 21 20 20 19 20 22 22 23 24 24 23 24 23 22 21 20 19 19
11 11 10 9 8 7 7 8 8 7 6 6 6 5 4 4 4 4 5 6 7 8 9 11 12 14 14 14 14 15 16 16 16 17 18 18 19 20 21 22 22 23 23 23 23 24 24 25 26 26 26 25 25 25 25 25 25 24 24 23 23 22 21 21 22 23 22 22 22 21 20 19 20 21 23 24 25 26 25 25 25 23 22 21 21
11 11 9 8 8 7 8 8 7 7 6 5 5 5 5 4 4 4 4 5 6 7 8 9 11 13 14 15 16 17 18 18 19 19 20 20 21 22 23 24 24 25 25 26 26 26 26 27 27 27 27 27 27 27 27 27 27 27 26 26 25 24 23 22 23 24 24 23 23 23 22 20 20 20 22 23 25 26 25 25 27 26 24 23 22
11 11 9 8 8 8 8 7 6 6 5 4 4 5 5 5 5 4 5 5 6 7 8 9 11 13 16 17 17 18 18 18 19 19 20 20 21 22 24 24 25 25 26 27 27 27 27 27 28 28 28 28 28 27 27 27 27 27 28 28 28 27 25 24 24 25 25 25 25 25 24 23 21 20 21 21 23 25 25 26 27 26 26 25 24
11 10 10 9 8 8 7 6 5 5 4 3 3 4 5 5 5 4 5 5 5 7 8 10 11 13 14 16 17 17 17 17 18 18 18 19 20 21 22 23 23 23 24 25 26 26 26 26 27 28 29 29 29 28 28 28 28 28 28 28 28 28 28 26 26 26 26 26 26 26 26 25 23 22 21 21 21 23 24 26 26 26 26 26 27
10 10 9 8 7 7 6 5 5 4 4 3 3 4 5 5 4 4 3 4 5 6 8 11 12 12 13 14 15 16 16 17 18 18 19 20 21 21 22 22 22 22 22 23 24 24 24 25 26 27 28 29 29 29 29 29 28 28 27 27 27 27 28 28 27 27 27 27 27 28 28 27 26 25 23 22 22 22 23 25 26 26 27 26 28
10 10 9 8 7 6 6 5 4 4 3 3 4 5 5 4 3 3 2 3 4 7 9 11 12 12 13 14 14 15 16 17 18 18 19 20 21 22 22 22 22 23 23 23 24 24 24 25 25 26 27 27 28 29 29 30 29 29 29 28 28 27 27 27 28 28 28 28 28 29 29 29 29 28 26 24 24 23 23 24 25 27 28 28 28
11 9 8 8 7 6 5 5 4 4 3 3 4 4 4 3 2 1 1 2 4 7 9 10 11 12 14 14 14 15 16 17 17 17 18 19 21 21 21 22 22 23 24 25 25 25 26 26 26 26 26 27 28 28 29 30 30 31 30 30 29 29 28 28 27 28 28 29 29 30 30 30 31 31 30 28 26 25 24 23 25 26 27 28 27
11 9 8 8 7 6 5 5 4 4 4 4 4 3 3 2 1 1 0 2 5 7 8 10 11 12 13 14 15 16 17 17 18 18 19 20 22 22 22 23 23 23 24 25 25 26 26 27 27 27 28 28 28 29 30 30 31 31 32 31 31 30 30 29 29 28 28 28 29 30 31 32 32 32 33 32 29 27 26 25 24 25 25 27 27
11 9 8 7 7 6 5 5 4 4 4 3 3 2 2 2 2 2 1 3 5 7 8 10 12 13 14 14 15 16 17 18 18 18 20 21 23 24 24 24 23 23 24 25 25 26 26 27 27 28 28 29 30 30 31 31 32 32 32 32 32 32 31 31 31 30 30 29 29 30 31 32 33 33 34 34 33 31 29 27 26 25 25 26 26
12 10 8 7 6 5 5 4 4 3 3 3 3 3 3 3 3 2 2 4 6 8 9 11 13 14 15 15 16 17 18 19 20 20 21 20 21 23 24 25 25 25 25 26 27 28 28 29 30 30 31 31 32 32 33 33 33 33 34 34 33 33 33 32 32 32 32 31 31 30 30 31 32 33 34 35 35 34 32 30 28 26 25 24 25
12 10 8 6 6 5 5 4 4 3 3 3 3 3 3 3 3 3 4 6 7 9 11 12 14 15 16 17 18 20 21 22 22 22 22 20 20 21 23 24 26 27 28 28 29 29 30 31 32 32 33 33 33 34 34 34 35 35 35 35 34 34 33 33 33 33 33 33 32 32 31 31 32 33 34 36 36 35 34 33 30 28 26 25 25
11 9 7 6 6 5 5 4 3 3 3 3 3 3 3 4 3 3 5 7 9 11 12 14 15 16 18 19 20 21 22 22 22 22 22 21 21 22 23 24 25 27 29 30 31 31 31 32 32 33 33 33 33 34 34 34 34 35 35 35 35 34 34 33 33 33 33 33 33 33 33 32 33 33 34 35 36 35 36 36 33 30 29 27 27
11 9 7 6 6 5 5 4 3 3 3 3 3 4 4 4 4 5 6 8 10 11 13 15 16 18 19 20 20 21 21 22 22 22 22 22 21 22 23 24 24 25 27 29 31 32 32 33 33 33 34 34 34 35 35 35 36 36 36 36 36 35 34 34 33 33 33 34 34 34 34 34 34 34 33 34 35 36 36 37 36 33 31 30 29
9 8 7 6 6 5 4 4 3 3 3 3 3 4 4 4 5 6 8 9 11 12 14 16 17 18 19 20 20 21 22 22 22 22 22 22 22 22 23 24 25 26 27 28 29 30 31 32 32 33 34 34 35 35 36 36 37 37 37 38 38 38 37 36 35 34 34 34 34 34 34 34 34 34 34 34 35 36 36 38 38 36 34 32 32
8 8 7 6 6 5 4 4 3 3 3 3 4 4 5 5 6 7 9 10 12 13 15 17 18 19 19 20 21 22 22 23 23 23 22 22 22 23 24 26 26 26 27 28 28 29 30 31 31 31 32 34 34 35 36 36 37 38 38 39 40 40 40 39 38 37 36 35 35 35 35 35 35 35 35 35 35 36 37 37 39 40 38 35 34
8 8 7 6 5 4 4 3 3 3 3 4 4 5 5 7 8 9 10 12 13 14 16 17 18 19 20 21 22 23 24 24 23 23 23 23 23 23 24 25 26 26 26 26 27 26 26 29 30 30 31 32 34 35 36 37 37 38 39 39 40 41 42 42 41 40 39 37 36 36 36 36 36 36 36 35 35 35 37 38 38 40 41 40 37
8 8 7 6 5 5 4 3 3 3 4 4 5 6 7 8 9 10 11 12 13 15 16 17 18 19 20 22 23 24 24 23 23 24 24 24 24 24 24 23 24 24 24 25 27 27 27 28 30 32 32 32 34 35 36 37 38 38 39 40 40 41 42 43 44 43 42 40 39 37 37 37 37 37 37 36 36 36 36 38 38 40 42 43 41
9 9 7 7 6 5 4 3 3 4 4 5 6 7 8 9 10 11 12 13 14 15 16 18 19 20 21 22 23 23 23 23 24 24 24 24 24 24 24 24 23 23 24 23 24 26 28 28 28 30 32 32 33 34 36 37 38 38 39 40 41 41 42 43 44 45 44 43 42 40 38 37 37 37 37 37 37 37 37 37 39 40 41 44 45
10 9 8 7 6 5 4 4 4 5 5 6 7 8 9 10 11 11 12 13 14 16 17 18 19 20 22 23 23 23 23 23 23 23 23 23 24 24 24 24 25 25 26 26 25 24 26 27 28 28 29 31 31 32 34 35 36 37 39 40 41 41 42 43 44 44 45 44 44 42 40 38 37 37 37 37 37 38 38 38 38 40 41 42 45
10 9 8 8 6 5 5 5 5 6 6 7 8 9 9 10 11 12 12 13 15 16 17 18 19 21 21 22 22 22 23 23 23 23 23 23 24 24 24 25 25 26 26 27 28 27 27 28 29 30 30 30 31 31 32 34 35 37 38 40 41 42 43 43 43 44 44 44 43 43 41 39 37 35 35 35 36 36 38 39 39 40 41 42 44
10 9 9 8 7 6 6 6 6 6 7 8 9 9 10 10 11 12 13 14 15 16 17 18 19 20 21 21 21 21 22 22 23 23 23 24 24 24 25 25 25 26 26 27 28 30 30 30 31 32 32 32 32 33 33 34 36 37 39 41 43 43 43 43 42 42 42 43 42 42 41 40 37 34 32 32 33 33 34 37 39 40 41 42 43
10 9 8 8 8 7 7 7 6 7 8 9 9 10 10 11 11 12 13 14 14 15 16 18 19 20 20 21 21 21 21 22 22 23 24 24 25 25 25 25 25 26 26 27 28 30 31 32 33 34 34 34 34 35 35 36 38 39 41 43 44 45 44 42 40 39 40 40 41 40 39 38 37 34 30 29 29 30 31 32 36 39 40 42 43
9 9 9 8 8 8 8 7 7 8 8 9 9 9 10 11 11 11 12 13 14 15 16 18 19 19 19 20 20 20 21 21 22 23 23 24 24 25 26 26 27 27 28 28 29 29 31 32 32 34 35 36 37 37 38 39 40 42 43 44 45 46 45 42 40 38 38 38 38 38 37 37 36 35 32 29 28 28 29 30 32 36 39 41 43
10 10 10 9 9 9 8 8 8 8 8 9 9 9 10 10 10 11 12 12 13 15 16 17 18 18 18 18 19 20 20 21 22 22 23 23 24 25 26 27 28 29 30 30 30 31 32 32 32 33 34 36 37 39 41 42 43 44 45 46 47 47 45 42 40 38 36 35 34 35 36 36 36 35 34 32 30 29 29 30 30 32 36 39 42
11 12 11 11 10 9 9 8 8 8 8 8 9 9 9 10 10 10 11 12 13 14 16 16 17 17 17 18 18 19 20 20 21 21 22 23 24 25 26 28 29 29 30 31 32 33 33 33 34 35 35 37 38 40 41 43 44 45 46 48 49 47 45 42 40 37 34 32 31 31 33 33 34 34 34 34 33 32 31 30 30 31 33 37 40
12 12 13 12 11 10 9 9 8 8 8 8 9 9 9 9 9 9 10 11 12 14 15 16 16 16 17 17 18 18 19 19 20 21 21 22 24 25 26 27 28 29 30 31 32 33 34 34 35 35 36 38 39 40 42 44 44 45 47 49 49 47 45 43 40 36 33 31 30 29 29 30 31 32 33 34 35 36 35 33 32 31 32 34 38
12 13 13 12 11 10 10 9 8 8 8 8 8 8 8 8 8 8 9 10 12 13 14 15 15 15 16 17 17 17 18 18 19 20 21 22 24 25 25 26 27 28 29 31 32 33 34 35 35 36 37 38 39 41 43 44 45 46 48 49 49 47 45 43 40 35 31 30 31 31 29 29 29 30 31 32 33 35 37 36 35 33 32 32 35
13 13 13 12 11 11 10 9 9 8 8 8 8 7 7 7 7 8 9 10 11 13 13 13 14 14 15 15 16 16 17 18 18 19 21 22 23 24 24 25 26 28 29 31 32 33 34 35 36 36 37 38 40 42 44 45 46 48 50 51 50 48 46 45 42 36 32 31 32 34 33 31 29 29 29 30 31 32 34 36 36 35 33 32 33
14 14 13 12 12 12 11 10 9 8 8 7 7 6 6 6 6 7 8 10 11 12 12 12 12 13 13 14 15 15 16 17 18 20 21 22 22 23 24 25 26 28 30 31 33 34 35 35 36 37 39 40 41 43 44 45 46 48 51 54 54 51 48 47 45 42 37 34 34 35 35 32 29 28 28 29 30 31 31 31 33 34 34 33 31
15 14 13 13 13 12 11 10 9 8 7 7 6 6 6 6 6 7 8 9 10 10 10 11 11 11 12 13 13 14 15 16 18 19 20 21 22 23 24 25 27 29 31 33 34 36 36 37 37 39 40 41 42 44 45 46 48 50 52 54 56 54 50 48 48 46 40 37 37 36 35 33 29 25 24 24 25 28 29 30 30 30 31 32 31
16 15 14 14 13 12 11 10 9 7 7 7 6 6 6 5 5 6 7 9 9 9 9 10 10 11 11 12 13 13 15 16 18 19 20 21 22 23 24 26 28 30 32 34 36 37 37 38 39 40 41 42 44 45 47 49 50 51 52 54 56 56 54 50 49 48 44 41 41 39 36 34 30 26 22 21 21 23 25 27 30 31 30 29 29
17 16 15 14 13 12 11 9 8 7 7 7 7 6 6 5 5 6 7 8 8 8 8 9 9 10 11 11 12 14 15 17 18 19 20 21 22 24 25 27 29 31 33 35 36 37 38 39 40 41 43 44 45 46 48 49 50 50 51 54 56 57 57 54 51 51 51 48 46 44 40 36 32 28 24 21 21 22 22 23 25 29 31 31 29
18 17 16 14 13 12 10 9 8 7 7 7 7 6 6 5 4 5 6 7 7 7 8 9 9 9 10 11 12 14 15 16 18 19 20 22 24 25 27 29 31 33 34 36 37 38 39 40 41 43 44 45 46 47 47 48 50 50 51 53 55 58 59 58 56 56 56 53 50 48 45 38 32 30 26 22 22 22 23 24 24 25 28 31 31
18 17 16 14 13 12 10 9 8 8 8 8 8 7 5 4 4 5 6 6 6 6 7 8 8 8 9 10 12 13 15 16 17 19 20 22 24 26 28 31 32 34 35 36 37 38 39 41 42 43 44 45 46 46 47 48 49 51 51 51 53 57 58 58 57 56 56 54 51 51 51 43 34 32 29 25 25 24 23 25 26 26 27 29 30
19 17 16 14 13 12 11 9 9 9 9 9 8 6 5 4 4 5 5 5 5 6 6 6 6 7 8 9 11 12 14 15 16 18 20 23 25 26 29 30 32 33 34 36 37 38 39 40 42 44 45 45 46 46 47 48 49 50 51 51 52 55 57 56 55 54 54 54 53 53 54 49 40 35 34 32 30 28 27 27 27 27 27 26 27
19 17 16 15 14 12 11 10 10 10 10 9 8 6 5 4 4 4 4 4 4 5 5 5 5 6 7 9 10 11 13 14 16 18 20 23 25 26 28 29 30 32 33 34 35 37 38 40 41 43 44 45 46 46 46 46 47 49 51 51 51 52 54 54 53 52 52 53 54 53 54 53 47 41 38 36 35 32 29 28 28 26 24 22 22
20 18 17 16 14 12 11 11 11 11 11 10 8 6 5 4 4 3 3 3 3 4 3 3 3 5 6 8 9 10 12 13 15 18 20 22 24 26 27 29 30 31 33 34 35 37 38 39 40 42 43 44 45 45 45 45 45 46 48 49 50 50 51 52 52 52 52 53 55 54 53 54 51 46 41 39 37 34 29 27 26 23 20 16 14
22 20 17 16 15 13 13 13 13 12 12 10 8 7 6 4 3 2 2 2 3 3 2 1 2 4 5 6 8 9 10 12 15 17 19 21 23 24 26 27 28 30 32 33 35 36 38 39 39 40 40 41 42 43 44 44 43 44 45 47 49 50 51 52 53 54 54 55 55 55 53 52 51 48 44 40 38 33 28 26 26 22 18 14 9
24 23 19 17 15 15 14 14 14 13 12 11 9 8 6 4 3 2 2 2 3 3 2 0 1 2 4 5 7 8 10 12 14 16 19 20 22 23 24 25 26 27 29 30 32 34 36 37 38 38 37 38 39 40 42 43 43 43 44 45 49 51 52 53 54 55 56 56 56 56 54 51 49 47 44 39 36 32 27 26 25 21 18 13 7
27 27 23 19 17 16 15 15 15 14 13 11 9 8 6 4 3 3 3 3 3 4 3 1 1 2 3 4 6 7 9 11 14 16 18 19 21 22 23 25 26 27 27 29 30 32 33 34 35 36 36 36 36 38 39 41 42 43 44 45 47 50 53 54 54 55 55 56 57 56 54 52 48 46 44 40 35 32 30 28 23 18 16 13 6
28 27 23 20 18 17 16 16 16 15 13 11 10 8 6 5 4 4 4 4 5 5 4 2 1 1 2 4 5 7 9 11 13 15 17 18 20 21 23 25 27 28 29 31 33 34 35 35 35 36 36 36 36 36 37 38 40 42 44 45 46 47 50 53 55 55 55 57 57 55 54 53 50 48 47 45 41 37 34 31 24 17 16 14 8
Wind_Direction
258 263 267 268 271 277 283 288 292 296 299 298 296 298 301 302 303 305 305 306 309 313 315 315 315 315 313 312 311 310 309 308 307 306 306 306 306 306 305 306 308 312 315 317 320 321 317 310 307 307 308 308 307 311 315 315 317 317 313 307 305 304 303 299 293 291 287 277 271 270 273 276 277 278 279 282 284 287 288 289 289 284 274 267 265
260 264 267 270 274 280 286 293 297 298 296 296 300 305 305 304 305 306 307 308 311 315 316 317 317 317 316 315 316 316 316 316 315 314 312 311 312 313 314 317 319 320 321 322 323 322 317 313 311 311 313 315 316 318 320 320 318 320 319 314 310 306 304 301 293 289 287 278 272 270 271 273 274 275 276 277 280 282 284 285 286 283 275 266 263
258 262 265 270 276 282 291 298 298 296 293 300 308 307 306 307 309 311 312 314 317 319 319 318 317 317 320 323 326 327 327 328 328 325 323 322 323 324 324 324 323 321 321 320 321 320 316 313 314 316 317 318 319 320 321 321 321 322 322 320 319 314 307 301 294 288 286 281 275 272 272 272 272 272 272 274 275 277 280 282 283 282 274 265 261
256 260 264 272 280 287 295 297 294 293 302 313 311 309 311 312 313 315 317 318 321 322 321 320 322 326 333 337 339 341 341 340 338 337 335 334 333 332 331 327 323 321 320 320 320 320 318 315 316 319 319 317 317 319 321 321 321 322 322 321 322 321 313 304 298 292 288 283 278 273 273 272 270 270 270 270 272 274 277 279 280 279 274 264 258
254 258 265 275 285 291 293 290 287 300 314 315 310 309 309 309 313 317 319 322 325 327 328 332 335 342 347 347 349 351 349 346 344 343 341 339 337 335 332 328 323 321 320 319 319 319 318 318 318 320 320 319 318 318 318 318 319 320 322 322 322 320 315 310 305 299 292 286 281 276 273 271 269 267 268 268 269 271 274 276 278 277 273 264 257
254 258 265 275 284 288 288 282 287 301 298 291 293 296 297 303 315 322 325 326 331 335 339 342 344 350 352 351 353 353 350 346 343 343 342 339 336 333 331 328 326 323 322 320 319 319 318 318 318 319 318 318 317 316 315 316 318 319 319 320 322 321 319 318 312 304 297 292 287 282 277 273 271 268 268 269 269 269 270 272 274 274 272 264 257
253 258 265 273 277 277 275 272 278 277 266 265 275 282 289 307 327 332 332 333 338 343 345 345 346 352 353 351 352 349 345 342 339 339 338 336 334 332 330 328 327 325 324 323 322 321 319 318 318 319 319 317 317 317 316 316 317 318 317 318 320 320 321 321 316 310 305 298 293 288 281 276 273 271 270 269 269 268 267 267 268 269 270 266 258
250 256 262 267 267 260 253 256 259 255 255 263 273 281 296 328 344 340 339 340 344 347 348 347 348 352 353 349 348 344 341 338 335 335 334 332 330 328 327 325 324 323 322 322 321 320 319 318 318 319 318 316 316 315 315 316 316 316 317 317 317 317 317 316 314 312 308 303 298 293 287 281 275 271 270 268 266 265 263 262 262 263 264 264 259
248 252 256 258 252 239 237 246 249 252 261 271 279 288 315 351 353 346 346 347 348 349 350 350 350 354 355 350 346 343 340 338 335 333 332 329 327 325 323 321 319 317 317 317 316 316 316 317 317 317 316 314 314 313 313 313 313 313 313 314 314 314 314 311 308 306 305 304 302 298 293 287 280 273 269 269 265 262 262 260 259 258 258 258 257
246 248 251 249 235 225 233 243 249 259 270 279 286 299 327 353 357 353 352 352 356 354 354 353 351 354 355 351 346 342 340 338 335 332 331 329 326 324 321 318 315 314 313 313 313 314 314 315 315 315 314 313 312 312 311 311 310 309 308 309 309 311 311 308 305 302 301 302 302 300 296 292 286 278 271 268 267 265 263 261 259 257 255 255 254
244 245 247 239 223 222 235 246 257 268 276 281 293 308 322 341 355 359 358 360 2 360 357 355 351 350 352 348 343 340 338 336 333 331 330 328 324 321 317 315 313 313 313 313 313 313 313 313 312 312 312 312 311 310 310 309 308 307 305 305 304 305 305 304 301 299 298 298 298 296 295 294 291 287 279 271 269 267 264 262 259 255 253 252 252
242 244 240 223 215 225 237 250 262 270 277 286 303 313 315 325 344 357 6 7 6 6 7 2 351 346 345 343 340 337 336 333 331 329 328 325 320 316 314 314 314 315 315 314 314 314 313 312 311 311 310 310 309 308 308 307 306 305 304 303 302 301 300 298 297 296 295 295 294 293 292 292 291 290 285 279 272 267 264 264 261 256 253 250 249
240 239 225 209 216 230 240 253 262 269 279 293 310 312 309 316 333 353 7 13 13 13 12 6 353 343 338 338 337 335 334 332 329 328 325 320 315 313 313 313 315 315 315 314 314 313 313 312 311 311 311 311 310 309 307 306 304 303 302 301 300 299 298 295 293 293 293 291 291 290 289 288 288 287 286 284 278 270 265 264 265 263 258 254 250
235 225 210 208 223 233 242 253 261 270 280 293 305 303 302 312 329 349 3 18 27 19 11 4 358 349 342 340 339 340 340 337 335 334 329 323 319 318 319 319 318 318 316 314 313 314 314 314 313 313 314 313 312 311 309 308 306 304 302 300 298 297 296 293 291 289 289 289 288 288 287 286 285 283 283 283 281 277 271 266 265 264 261 260 256
222 209 205 215 225 231 239 251 259 267 275 287 294 294 299 310 325 345 9 34 40 24 11 5 0 358 356 353 350 349 347 345 344 342 337 331 328 328 328 326 325 324 321 318 317 317 317 316 314 313 313 313 312 311 310 309 308 306 304 302 299 297 295 292 290 287 285 285 285 284 284 283 282 280 279 279 280 281 277 269 264 263 263 263 258
208 203 208 216 221 229 239 247 251 257 267 283 289 295 301 305 317 346 27 53 41 23 12 5 2 3 4 4 360 355 353 351 347 343 339 333 330 330 329 327 327 325 323 321 320 319 317 315 314 312 311 310 310 309 309 309 308 307 305 304 302 300 297 294 291 288 284 281 280 279 280 280 280 278 276 275 276 279 279 274 268 263 260 262 262
199 202 207 211 219 229 239 241 244 252 265 280 290 296 296 296 309 344 49 47 29 19 10 4 2 3 4 4 2 359 358 354 347 342 340 334 329 328 327 325 326 325 323 322 321 320 319 317 316 315 313 311 310 309 308 308 308 307 306 305 304 302 299 297 294 290 287 283 278 276 275 276 277 277 276 274 273 274 274 274 273 268 264 264 266
196 198 203 210 219 228 236 239 243 254 271 284 292 291 280 277 279 238 248 8 11 6 1 359 359 358 358 359 358 357 357 354 350 345 341 337 332 329 328 327 327 326 324 323 322 321 320 319 318 317 316 315 313 311 310 309 307 306 305 304 303 302 300 298 296 293 289 285 282 277 274 273 272 273 274 273 271 269 269 270 272 273 271 267 264
196 200 206 212 219 228 234 236 243 259 279 290 289 277 261 252 240 232 277 344 353 352 353 355 353 350 350 351 351 352 352 351 349 346 342 340 336 332 330 329 329 328 326 325 323 322 321 320 319 318 317 316 315 313 311 310 308 306 304 303 302 301 299 298 296 294 291 287 284 280 276 273 271 269 270 271 270 268 267 268 269 270 271 267 262
201 207 212 214 219 227 230 234 248 267 284 289 279 264 250 239 235 249 303 338 343 344 348 349 345 343 342 343 344 345 346 346 346 346 344 341 335 331 329 329 331 331 329 327 326 326 325 324 323 322 321 320 319 317 314 312 311 308 306 304 302 301 299 297 296 294 292 289 286 282 278 275 272 269 267 267 267 268 267 266 266 266 266 265 261
207 213 214 216 222 224 228 236 251 270 280 276 267 258 244 235 240 269 319 335 338 340 342 341 339 338 337 338 340 342 343 344 345 344 341 338 335 332 330 330 331 331 330 329 329 329 328 327 326 325 324 323 321 319 317 315 314 312 310 308 306 304 301 299 296 294 292 290 287 284 280 276 273 271 268 266 265 264 264 264 263 262 262 260 259
211 214 214 218 224 226 230 238 251 265 271 269 263 254 241 240 255 291 321 330 333 336 336 335 335 335 335 336 338 340 341 341 340 339 337 337 337 334 332 332 331 329 328 328 329 329 329 328 328 327 326 324 323 321 319 317 315 314 313 312 310 308 306 303 300 297 294 291 288 286 282 279 275 272 270 268 266 262 261 261 260 257 257 256 253
209 210 212 217 221 226 230 237 251 262 267 267 258 249 247 253 275 300 316 325 329 331 331 332 333 334 334 335 336 336 336 335 335 336 338 339 339 337 335 334 334 332 330 329 329 328 328 329 328 328 328 326 325 324 323 321 319 317 316 314 312 310 308 307 304 300 297 294 291 287 284 281 277 273 270 268 267 264 259 258 258 255 253 252 251
206 207 212 216 219 222 228 238 252 261 264 263 255 253 260 270 286 303 314 322 327 328 330 331 332 331 331 331 332 332 332 333 335 338 340 341 342 341 339 337 337 337 334 332 332 331 330 330 329 328 328 328 327 326 325 324 322 321 319 318 316 313 310 308 305 303 300 297 293 290 287 283 279 276 272 268 266 265 261 257 256 255 251 249 248
205 208 214 217 219 223 232 243 252 262 265 263 264 268 276 286 297 308 316 322 326 328 330 330 329 328 328 329 330 330 332 335 338 340 341 343 344 343 341 339 339 340 337 335 335 335 332 330 331 332 331 329 328 327 326 326 324 323 321 320 318 316 314 311 308 304 301 298 295 292 289 285 282 278 274 270 266 263 262 258 254 253 251 248 246
209 212 217 219 221 225 234 245 256 270 277 277 282 288 295 303 308 313 318 323 326 328 328 326 325 326 328 329 330 331 334 337 339 340 341 341 342 341 342 341 340 340 340 338 336 336 335 332 331 333 333 331 330 329 328 327 327 325 323 321 320 318 316 313 310 307 303 300 296 293 289 286 283 280 276 272 267 262 260 259 255 252 250 249 246
212 213 219 219 223 226 232 247 265 283 292 295 302 308 310 313 314 316 319 322 325 325 325 324 325 327 329 330 332 334 337 338 339 339 339 339 339 339 340 341 339 338 340 341 338 335 337 340 336 333 335 336 333 332 331 330 329 327 325 324 322 320 318 315 312 309 306 302 298 294 290 286 283 280 277 273 269 264 259 257 256 253 250 248 247
211 213 217 217 221 225 232 252 276 293 303 309 315 317 317 316 315 316 318 321 323 324 325 326 327 330 332 332 334 336 338 339 338 339 339 340 341 341 340 341 341 341 340 342 343 339 337 340 341 337 336 338 337 335 334 332 330 329 328 326 324 323 320 317 314 311 308 305 301 296 291 287 283 280 277 274 270 266 261 256 254 253 250 247 246
211 213 214 216 220 225 236 256 275 292 304 313 319 319 317 315 313 315 318 322 325 326 327 328 330 332 333 334 336 338 338 338 338 340 341 342 343 343 343 344 346 347 345 343 346 348 343 341 344 344 342 341 342 339 337 335 333 331 330 329 327 326 324 321 317 314 310 307 303 299 294 289 285 281 278 275 270 266 263 258 254 252 250 248 246
213 213 216 219 223 229 241 256 272 289 302 312 316 316 315 313 314 318 322 325 326 327 329 331 333 334 335 336 338 339 339 339 340 342 343 344 344 345 347 349 349 350 350 349 348 351 353 350 348 348 347 346 345 343 341 339 337 335 334 333 332 330 327 324 320 315 312 309 305 302 299 295 290 284 280 277 273 268 263 260 255 251 250 248 246
214 216 221 222 226 234 242 255 270 286 300 309 312 313 313 315 318 322 325 326 327 329 331 333 334 335 337 339 339 339 341 342 344 344 345 345 347 349 350 352 352 352 353 354 353 352 353 354 352 350 350 350 347 346 345 343 342 340 339 338 337 334 330 326 321 316 312 310 308 306 303 300 296 291 285 279 276 272 266 261 257 253 249 248 247
215 218 221 222 229 237 245 258 272 286 298 305 309 311 314 318 321 323 325 327 328 331 333 333 335 337 339 340 340 342 344 345 346 346 347 349 350 351 352 352 353 354 354 355 357 356 354 354 354 352 351 350 349 348 348 347 346 345 343 341 339 337 333 328 323 319 315 311 309 307 304 302 300 297 291 284 277 273 269 264 259 255 250 247 246
218 221 224 228 236 243 253 262 272 285 295 302 307 310 315 318 321 323 325 327 330 333 334 335 338 340 341 341 343 346 347 348 348 349 350 352 351 352 352 353 353 354 355 356 357 358 357 356 356 354 352 350 350 350 349 349 349 347 346 344 343 340 336 332 328 324 319 314 310 306 303 300 298 296 294 288 281 275 271 266 261 256 252 248 245
228 233 237 240 246 251 258 265 274 286 293 300 306 310 315 317 320 323 324 328 331 334 335 338 341 341 341 343 347 349 349 349 350 352 353 353 353 354 354 354 355 354 355 357 358 359 359 357 356 356 355 352 351 352 351 352 351 349 347 347 347 344 340 336 334 331 325 318 311 306 301 297 295 293 292 290 286 279 273 268 263 258 253 249 245
240 246 249 250 254 257 262 269 277 286 293 299 305 309 313 315 318 321 325 330 333 335 338 340 341 341 343 348 350 350 350 351 353 354 354 355 356 358 357 356 356 357 358 358 359 360 360 359 357 357 357 356 355 354 353 353 353 351 350 351 350 347 343 341 340 337 333 326 318 310 303 298 293 290 288 287 285 281 276 269 264 259 255 250 246
249 253 254 256 259 262 266 273 279 285 291 297 301 305 309 312 316 321 326 330 333 338 340 340 341 344 348 350 350 350 352 355 356 355 357 359 0 0 360 359 359 360 1 1 2 1 0 0 360 359 359 359 357 356 355 355 353 353 354 354 352 350 347 346 345 343 340 335 327 318 310 305 300 295 290 285 282 279 276 271 265 260 255 251 248
255 256 257 258 261 264 268 272 276 281 286 291 297 301 305 310 315 320 325 330 336 340 340 341 345 349 351 351 351 353 356 357 357 358 1 3 3 2 2 2 2 3 4 4 5 5 3 2 1 1 1 0 360 359 358 356 354 354 356 357 355 353 352 351 350 348 346 341 334 325 319 314 308 304 299 293 286 280 275 271 267 261 256 251 248
256 256 258 259 262 264 266 268 270 275 280 287 293 295 300 307 311 317 325 332 338 340 341 344 349 351 351 352 353 356 358 358 0 4 6 6 5 4 4 4 5 6 6 6 7 7 6 5 3 2 3 2 2 2 1 359 357 356 356 358 359 359 356 354 353 353 352 348 340 331 325 320 313 306 304 301 297 291 282 275 269 264 258 252 247
256 258 259 260 262 262 262 262 263 269 277 283 287 289 294 299 305 316 327 335 339 341 344 348 351 352 352 354 358 359 359 2 6 8 9 7 6 5 5 6 7 7 7 7 7 7 8 7 5 4 5 5 5 4 2 1 1 359 358 357 359 2 1 357 356 357 356 352 346 336 328 324 318 309 304 301 299 297 292 284 277 269 263 257 249
256 258 259 259 259 257 255 255 258 266 274 277 279 282 286 291 302 318 328 336 339 341 347 351 352 353 354 357 360 1 3 7 10 11 10 8 7 6 7 8 8 9 9 8 8 7 7 7 7 6 6 6 6 6 4 2 2 3 1 360 360 1 4 3 360 358 357 355 351 343 333 328 325 319 313 307 300 294 291 288 284 278 270 263 255
257 258 258 256 254 249 248 250 255 263 268 270 273 272 275 284 300 319 330 335 338 343 350 353 352 354 357 360 2 4 9 12 13 12 11 9 8 7 8 10 10 10 10 9 8 7 6 7 8 8 7 7 7 6 6 5 5 4 3 2 2 2 4 6 3 360 359 358 355 352 344 335 331 329 325 321 313 303 295 287 282 280 276 269 262
258 258 256 252 246 242 242 245 253 259 261 262 261 260 266 278 299 320 330 334 339 347 352 353 353 356 359 3 7 10 13 14 13 12 11 9 8 8 9 11 12 12 11 10 8 7 6 6 7 8 8 8 8 7 7 7 6 6 5 4 3 3 4 5 4 2 2 1 359 359 356 347 343 342 338 333 328 320 311 299 286 278 275 272 267
259 257 253 246 239 236 237 241 248 252 252 251 248 249 257 272 300 322 329 333 341 350 353 353 354 358 3 8 13 16 17 15 14 12 10 10 9 8 9 11 11 11 11 9 7 6 6 6 6 7 8 8 7 7 7 7 7 7 7 6 5 5 5 6 5 4 2 1 1 4 4 359 355 355 353 347 340 333 325 318 305 288 277 270 267
257 254 248 240 234 232 233 237 240 240 239 237 236 241 250 269 302 319 326 334 344 351 353 353 356 1 9 15 17 19 18 15 14 13 12 11 10 10 11 12 11 10 9 8 6 6 6 6 6 6 7 7 6 6 5 6 6 8 9 8 7 7 7 7 8 5 2 1 3 6 6 4 0 358 357 353 347 342 335 328 319 305 288 273 264
253 249 243 234 229 228 228 229 230 229 228 227 227 232 244 267 299 313 323 335 344 352 353 351 358 9 17 19 20 19 17 15 14 14 14 13 12 12 13 13 12 10 8 6 5 5 5 5 5 5 5 5 4 5 5 4 5 7 8 9 9 10 9 9 10 8 4 4 6 7 7 7 4 358 354 349 343 339 335 330 324 314 300 280 265
248 243 236 228 224 224 223 223 223 220 218 219 222 227 240 264 291 306 320 334 343 348 347 348 3 18 22 21 21 19 17 15 15 15 16 15 14 13 14 13 11 10 8 5 4 4 5 6 5 5 4 3 2 2 3 4 5 6 7 9 10 11 10 10 12 11 8 8 10 9 8 9 7 1 355 350 344 339 335 332 328 323 311 290 269
244 237 230 224 220 217 217 216 215 213 213 214 217 223 238 260 281 298 313 328 336 335 332 347 16 26 25 22 22 19 16 15 16 17 17 16 15 14 13 11 10 9 7 4 3 3 4 5 5 4 2 1 360 359 360 2 4 6 6 8 10 11 11 11 13 13 13 14 13 11 10 10 9 4 358 354 349 343 339 339 337 333 324 305 276
241 230 223 220 218 214 211 210 208 207 209 210 213 223 237 253 269 284 295 306 315 307 301 346 33 31 27 23 19 17 15 16 17 18 18 16 15 14 13 11 10 9 6 4 3 2 2 2 3 3 2 360 358 357 357 358 2 4 6 7 9 11 12 13 12 13 15 17 16 15 12 12 12 8 2 358 354 348 343 344 345 343 340 326 292
243 230 218 214 214 211 206 204 203 204 206 207 211 222 233 245 258 258 251 270 281 268 255 196 54 31 24 19 15 13 13 16 18 18 17 16 14 13 12 10 11 9 6 4 3 3 2 1 360 360 360 358 357 356 355 356 358 2 4 7 9 10 12 13 13 14 15 17 18 17 15 13 13 13 10 5 1 357 352 347 346 350 354 348 318
244 229 214 206 207 208 204 202 202 203 204 206 210 219 230 240 243 233 229 246 251 240 226 185 95 23 17 12 7 8 12 15 17 16 16 14 12 11 9 8 9 8 5 4 4 3 2 360 358 357 357 356 356 355 356 356 357 359 3 7 9 10 11 12 13 14 15 17 18 17 16 14 14 15 17 15 13 13 9 3 358 358 2 3 353
240 224 213 207 204 202 203 204 204 204 204 205 210 216 225 232 230 225 225 233 234 226 212 190 183 353 2 356 355 3 9 12 13 14 12 10 8 7 7 7 6 4 3 3 3 3 2 359 357 355 354 354 354 354 355 356 357 359 1 4 8 10 11 12 12 13 14 16 17 17 16 16 16 15 16 18 20 23 22 20 18 11 3 9 20